This is the latest recevied weather packets stored in our database for station/object WB5RFA. If no packets are shown the sender has not sent any weather packets the latest 10 day(s).
| Time | Temp. | Humidity | Pressure | Rain* | Wind** | Luminosity | Snow |
|---|---|---|---|---|---|---|---|
| 1778041271 | 10° C | 71% | 1013.8 hPa | 0 mm | - | - | - |
| 1778040793 | 10° C | 69% | 1013.9 hPa | 0 mm | - | - | - |
| 1778040312 | 10° C | 70% | 1013.5 hPa | 0 mm | - | - | - |
| 1778039832 | 9.44° C | 77% | 1013.2 hPa | 0 mm | - | - | - |
| 1778039353 | 9.44° C | 79% | 1013.2 hPa | 0 mm | - | - | - |
| 1778038872 | 10° C | 80% | 1013.1 hPa | 0 mm | - | - | - |
| 1778038391 | 10° C | 80% | 1012.5 hPa | 0 mm | - | - | - |
| 1778037912 | 10° C | 79% | 1012.2 hPa | 0 mm | - | - | - |
| 1778037431 | 10° C | 79% | 1012.1 hPa | 0 mm | - | - | - |
| 1778036953 | 10° C | 81% | 1012 hPa | 0 mm | - | - | - |
| 1778036472 | 10° C | 82% | 1012 hPa | 0 mm | - | - | - |
| 1778035991 | 10° C | 84% | 1011.8 hPa | 0 mm | - | - | - |
| 1778035511 | 10° C | 84% | 1011.6 hPa | 0 mm | - | - | - |
| 1778035033 | 10° C | 84% | 1011.5 hPa | 0 mm | - | - | - |
| 1778034552 | 10° C | 84% | 1011.5 hPa | 0 mm | - | - | - |
| 1778034071 | 10° C | 84% | 1011.4 hPa | 0 mm | - | - | - |
| 1778033592 | 10° C | 84% | 1011.2 hPa | 0 mm | - | - | - |
| 1778033111 | 10° C | 83% | 1011 hPa | 0 mm | - | - | - |
| 1778032632 | 10° C | 83% | 1010.8 hPa | 0 mm | - | - | - |
| 1778032152 | 10.56° C | 83% | 1010.7 hPa | 0 mm | - | - | - |
| 1778031671 | 10.56° C | 82% | 1010.6 hPa | 0 mm | - | - | - |
| 1778031192 | 10.56° C | 82% | 1010.6 hPa | 0 mm | - | - | - |
| 1778030711 | 10.56° C | 82% | 1010.6 hPa | 0 mm | - | - | - |
| 1778030232 | 10.56° C | 82% | 1010.5 hPa | 0 mm | - | - | - |
| 1778029751 | 11.11° C | 82% | 1010.6 hPa | 0 mm | - | - | - |
* Rain latest hour (hover to see other rain measurements)
** Current wind speed in m/s (hover to see current wind gust speed)